Weather History for Mineral Point, WI

Change the Weather History Date:

Wednesday, April 17, 2013

  Actual Average (KLNR) Record (KLNR)
Temperature  
Mean Temperature 42 °F -  
Max Temperature 44 °F 56 °F 75 °F (2002)
Min Temperature 39 °F 35 °F 26 °F (1997)
Degree Days  
Heating Degree Days 24    
Moisture  
Dew Point 36 °F    
Average Humidity 80    
Maximum Humidity 93    
Minimum Humidity 61    
Precipitation  
Precipitation 1.13 in - - ()
Sea Level Pressure  
Sea Level Pressure 30.07 in    
Wind  
Wind Speed 12 mph (East)    
Max Wind Speed 25 mph    
Max Gust Speed 34 mph    
Visibility 8 miles    
Events Rain    
Averages and records for this station are not official NWS values.
T = Trace of Precipitation, MM = Missing Value Source: NWS Daily Summary

Daily Weather History Graph

Daily Weather History Graph

Search for Another Location

Airport:

Trip Planner

Search our weather history database for the weather conditions in past years. The results will help you decide how hot, cold, wet, or windy it might be!

Date:

Astronomy

Apr. 17, 2013 Rise Set
Actual Time 6:15 AM CDT 7:45 PM CDT
Civil Twilight 5:45 AM CDT 8:15 PM CDT
Nautical Twilight 5:10 AM CDT 8:51 PM CDT
Astronomical Twilight 4:32 AM CDT 9:29 PM CDT
Moon 11:26 AM CDT (4/17) 1:26 AM CDT (4/17)
Length of Visible Light 14h 29m
Length of Day
13h 30m
Waxing Crescent, 42% of the Moon is Illuminated
Apr 17
Waxing Crescent
Apr 18
First Quarter
Apr 25
Full
May 2
Last Quarter
May 9
New

Hourly Weather History & Observations

Time (CDT) Temp. Windchill Dew Point Humidity Pressure Visibility Wind Dir Wind Speed Gust Speed Precip Events Conditions
12:15 AM 44.6 °F 38.8 °F 32.0 °F 61% 30.26 in 10.0 mi NE 11.5 mph 16.1 mph N/A   Overcast
12:35 AM 44.6 °F 39.7 °F 32.0 °F 61% 30.27 in 10.0 mi ENE 9.2 mph - N/A   Overcast
12:55 AM 44.6 °F 40.2 °F 32.0 °F 61% 30.27 in 10.0 mi ENE 8.1 mph - N/A   Overcast
1:15 AM 44.6 °F 39.7 °F 32.0 °F 61% 30.27 in 10.0 mi East 9.2 mph - N/A   Overcast
1:35 AM 44.6 °F 39.7 °F 32.0 °F 61% 30.27 in 10.0 mi ENE 9.2 mph - N/A   Overcast
1:55 AM 44.6 °F 39.7 °F 32.0 °F 61% 30.26 in 10.0 mi ENE 9.2 mph - N/A   Overcast
2:15 AM 44.6 °F 40.2 °F 32.0 °F 61% 30.26 in 10.0 mi ENE 8.1 mph - N/A   Overcast
2:35 AM 42.8 °F 37.5 °F 32.0 °F 66% 30.25 in 10.0 mi ENE 9.2 mph - N/A   Overcast
2:55 AM 42.8 °F 38.0 °F 32.0 °F 66% 30.25 in 10.0 mi East 8.1 mph - N/A   Overcast
3:15 AM 42.8 °F 39.3 °F 32.0 °F 66% 30.25 in 10.0 mi East 5.8 mph - N/A   Overcast
3:35 AM 42.8 °F 38.6 °F 32.0 °F 66% 30.26 in 10.0 mi East 6.9 mph - N/A   Overcast
3:55 AM 42.8 °F 38.6 °F 32.0 °F 66% 30.24 in 10.0 mi East 6.9 mph - N/A   Overcast
4:15 AM 41.0 °F 36.4 °F 32.0 °F 70% 30.24 in 10.0 mi East 6.9 mph - N/A   Mostly Cloudy
4:55 AM 41.0 °F 35.2 °F 32.0 °F 70% 30.21 in 10.0 mi ENE 9.2 mph - N/A   Mostly Cloudy
5:15 AM 41.0 °F 35.2 °F 32.0 °F 70% 30.19 in 10.0 mi ENE 9.2 mph - N/A   Overcast
5:35 AM 41.0 °F 33.9 °F 32.0 °F 70% 30.19 in 10.0 mi ENE 12.7 mph 16.1 mph N/A   Overcast
5:55 AM 41.0 °F 34.7 °F 32.0 °F 70% 30.20 in 10.0 mi East 10.4 mph - N/A   Overcast
6:15 AM 42.8 °F 37.5 °F 32.0 °F 66% 30.25 in 10.0 mi ESE 9.2 mph - N/A   Overcast
6:35 AM 41.0 °F 35.2 °F 32.0 °F 70% 30.25 in 10.0 mi ESE 9.2 mph - N/A   Overcast
6:55 AM 42.8 °F 36.6 °F 32.0 °F 66% 30.23 in 10.0 mi East 11.5 mph 18.4 mph N/A   Overcast
7:15 AM 42.8 °F 35.1 °F 30.2 °F 61% 30.21 in 10.0 mi East 16.1 mph 24.2 mph N/A   Overcast
7:35 AM 41.0 °F 32.8 °F 32.0 °F 70% 30.20 in 10.0 mi East 16.1 mph 21.9 mph N/A Rain Light Rain
7:55 AM 41.0 °F 32.5 °F 32.0 °F 70% 30.18 in 10.0 mi ENE 17.3 mph 24.2 mph 0.03 in Rain Light Rain
8:15 AM 39.2 °F 29.0 °F 33.8 °F 81% 30.14 in 7.0 mi ENE 21.9 mph 27.6 mph 0.01 in Rain Light Rain
8:35 AM 39.2 °F 30.8 °F 33.8 °F 81% 30.17 in 5.0 mi ESE 15.0 mph 25.3 mph 0.02 in Rain Light Rain
8:55 AM 39.2 °F 34.2 °F 33.8 °F 81% 30.23 in 4.0 mi ESE 6.9 mph 11.5 mph 0.05 in Rain Rain
9:15 AM 39.2 °F 33.6 °F 33.8 °F 81% 30.21 in 3.0 mi ENE 8.1 mph - 0.04 in Rain Rain
9:35 AM 39.2 °F 30.2 °F 35.6 °F 87% 30.13 in 7.0 mi East 17.3 mph 25.3 mph 0.07 in Rain Light Rain
9:55 AM 39.2 °F 31.6 °F 35.6 °F 87% 30.18 in 10.0 mi East 12.7 mph - 0.07 in Rain Light Rain
10:15 AM 39.2 °F 31.2 °F 35.6 °F 87% 30.14 in 7.0 mi East 13.8 mph - 0.02 in Rain Light Rain
10:35 AM 39.2 °F 30.5 °F 35.6 °F 87% 30.12 in 5.0 mi East 16.1 mph 25.3 mph 0.05 in Rain Rain
10:55 AM 39.2 °F 31.2 °F 35.6 °F 87% 30.15 in 5.0 mi East 13.8 mph - 0.08 in Rain Rain
11:15 AM 39.2 °F 29.6 °F 35.6 °F 87% 30.09 in 4.0 mi ENE 19.6 mph 23.0 mph 0.04 in Rain Light Rain
11:35 AM 39.2 °F 30.2 °F 35.6 °F 87% 30.08 in 10.0 mi ENE 17.3 mph 25.3 mph 0.05 in Rain Light Rain
11:55 AM 39.2 °F 33.0 °F 35.6 °F 87% 30.15 in 4.0 mi East 9.2 mph 17.3 mph 0.08 in Rain Rain
12:15 PM 39.2 °F 31.2 °F 35.6 °F 87% 30.14 in 2.0 mi East 13.8 mph - 0.08 in Rain Heavy Rain
12:35 PM 39.2 °F 32.5 °F 35.6 °F 87% 30.13 in 2.0 mi ENE 10.4 mph - 0.15 in Rain Heavy Rain
12:55 PM 39.2 °F 31.6 °F 35.6 °F 87% 30.14 in 2.5 mi East 12.7 mph - 0.23 in Rain Rain
1:15 PM 39.2 °F 33.6 °F 37.4 °F 93% 30.14 in 2.5 mi East 8.1 mph - 0.06 in Rain Rain
1:35 PM 39.2 °F 30.8 °F 37.4 °F 93% 30.11 in 3.0 mi ENE 15.0 mph - 0.14 in Rain Light Rain
1:55 PM 41.0 °F 32.2 °F 37.4 °F 87% 30.09 in 10.0 mi East 18.4 mph - 0.14 in Rain Light Rain
2:15 PM 41.0 °F 30.9 °F 37.4 °F 87% 30.00 in 10.0 mi East 24.2 mph 29.9 mph N/A   Overcast
2:35 PM 41.0 °F 30.7 °F 37.4 °F 87% 29.92 in 10.0 mi East 25.3 mph 31.1 mph N/A   Overcast
2:55 PM 41.0 °F 30.9 °F 37.4 °F 87% 29.92 in 10.0 mi East 24.2 mph 34.5 mph N/A   Overcast
3:35 PM 42.8 °F 37.0 °F 37.4 °F 81% 30.01 in 10.0 mi ESE 10.4 mph 23.0 mph N/A   Overcast
3:55 PM 42.8 °F 35.8 °F 37.4 °F 81% 29.99 in 10.0 mi East 13.8 mph 20.7 mph N/A   Overcast
4:15 PM 42.8 °F 34.8 °F 37.4 °F 81% 29.96 in 10.0 mi East 17.3 mph 24.2 mph N/A   Overcast
4:35 PM 42.8 °F 35.8 °F 37.4 °F 81% 29.99 in 10.0 mi ENE 13.8 mph 17.3 mph N/A   Overcast
4:55 PM 42.8 °F 35.4 °F 37.4 °F 81% 29.96 in 10.0 mi East 15.0 mph 23.0 mph N/A   Overcast
5:15 PM 42.8 °F 35.1 °F 37.4 °F 81% 29.96 in 10.0 mi East 16.1 mph 24.2 mph N/A   Overcast
5:35 PM 42.8 °F 35.8 °F 37.4 °F 81% 29.98 in 10.0 mi East 13.8 mph 25.3 mph N/A   Overcast
5:55 PM 42.8 °F 34.5 °F 37.4 °F 81% 29.94 in 10.0 mi East 18.4 mph 25.3 mph N/A   Overcast
6:15 PM 42.8 °F 33.3 °F 39.2 °F 87% 29.87 in 10.0 mi East 24.2 mph 28.8 mph N/A   Overcast
6:35 PM 41.0 °F 31.4 °F 39.2 °F 93% 29.82 in 7.0 mi East 21.9 mph 28.8 mph N/A Rain Light Rain
6:55 PM 42.8 °F 34.8 °F 39.2 °F 87% 29.84 in 10.0 mi East 17.3 mph 24.2 mph N/A Rain Light Rain
7:15 PM 42.8 °F 35.1 °F 39.2 °F 87% 29.86 in 7.0 mi East 16.1 mph 21.9 mph N/A   Overcast
7:35 PM 42.8 °F 36.2 °F 41.0 °F 93% 29.86 in 10.0 mi East 12.7 mph 20.7 mph N/A   Overcast
7:55 PM 42.8 °F 35.4 °F 41.0 °F 93% 29.88 in 10.0 mi ESE 15.0 mph 23.0 mph N/A Rain Light Rain
8:15 PM 42.8 °F 38.0 °F 41.0 °F 93% 29.91 in 7.0 mi East 8.1 mph - N/A Rain Rain
8:35 PM 42.8 °F 36.6 °F 41.0 °F 93% 29.87 in 5.0 mi East 11.5 mph 16.1 mph 0.02 in Rain Light Rain
8:55 PM 42.8 °F 35.8 °F 41.0 °F 93% 29.83 in 5.0 mi East 13.8 mph 19.6 mph 0.02 in Rain Light Rain
9:15 PM 42.8 °F 36.2 °F 41.0 °F 93% 29.83 in 5.0 mi ESE 12.7 mph 20.7 mph 0.02 in Rain Light Rain
9:35 PM 42.8 °F 36.6 °F 41.0 °F 93% 29.83 in 5.0 mi East 11.5 mph - 0.05 in Rain Rain
9:55 PM 42.8 °F 36.6 °F 41.0 °F 93% 29.81 in 7.0 mi NE 11.5 mph 17.3 mph 0.07 in Rain Rain
10:15 PM 42.8 °F 38.6 °F 41.0 °F 93% 29.86 in 10.0 mi NNE 6.9 mph - N/A Rain Light Rain
10:35 PM 42.8 °F 38.6 °F 41.0 °F 93% 29.85 in 4.0 mi ENE 6.9 mph - 0.05 in Rain Rain
10:55 PM 42.8 °F 39.3 °F 41.0 °F 93% 29.87 in 3.0 mi NE 5.8 mph - 0.14 in Rain Heavy Rain
11:15 PM 42.8 °F 38.6 °F 41.0 °F 93% 29.85 in 4.0 mi NE 6.9 mph - 0.06 in Rain Rain
11:35 PM 42.8 °F 38.0 °F 41.0 °F 93% 29.86 in 5.0 mi NE 8.1 mph - 0.13 in Rain Heavy Rain
11:55 PM 42.8 °F 36.2 °F 41.0 °F 93% 29.83 in 3.0 mi ENE 12.7 mph - 0.22 in Rain Heavy Rain